MST,Max TemperatureF,Mean TemperatureF,Min TemperatureF,Max Dew PointF,MeanDew PointF,Min DewpointF,Max Humidity, Mean Humidity, Min Humidity, Max Sea Level PressureIn, Mean Sea Level PressureIn, Min Sea Level PressureIn, Max VisibilityMiles, Mean VisibilityMiles, Min VisibilityMiles, Max Wind SpeedMPH, Mean Wind SpeedMPH, Max Gust SpeedMPH,PrecipitationIn, CloudCover, Events, WindDirDegrees
2014-2-1,46,36,26,27,19,13,75,54,28,29.99,29.86,29.78,10,10,10,15,6,21,0.00,2,,306
2014-2-2,47,32,17,19,14,11,74,50,25,30.10,29.99,29.90,10,10,10,18,6,23,0.00,1,,189
2014-2-3,39,31,23,23,17,12,75,57,41,29.89,29.85,29.80,10,10,10,13,5,17,T,5,,255
2014-2-4,46,34,21,24,19,15,74,53,33,30.00,29.95,29.88,10,10,10,21,9,27,0.00,2,,216
2014-2-5,48,40,31,26,24,22,72,59,40,30.01,29.98,29.91,10,10,10,9,3,13,0.00,5,,213
2014-2-6,45,35,25,29,24,19,81,62,41,30.00,29.95,29.87,10,10,10,15,6,19,T,6,Rain,189
2014-2-7,50,43,36,33,30,24,89,67,36,30.09,30.00,29.88,10,9,7,21,7,24,T,5,Rain,204
2014-2-8,60,44,28,32,29,25,85,59,29,30.20,30.12,30.07,10,10,10,13,5,16,0.00,0,,183
2014-2-9,64,48,32,33,27,18,82,50,17,30.13,30.05,29.97,10,10,10,18,7,24,0.00,0,,203
2014-2-10,62,50,37,31,28,25,64,47,29,29.98,29.94,29.87,10,10,10,26,7,30,T,1,Rain,330
2014-2-11,61,46,30,25,17,4,69,38,10,30.09,30.03,29.96,10,10,10,14,6,17,0.00,0,,275
2014-2-12,68,49,29,22,17,11,58,33,14,30.19,30.10,30.03,10,10,10,16,5,20,0.00,0,,275
2014-2-13,74,54,33,25,22,20,61,36,14,30.14,30.04,29.94,10,10,10,14,6,18,0.00,0,,199
2014-2-14,76,55,34,24,21,16,56,33,10,30.12,30.04,29.99,10,10,10,15,6,23,0.00,0,,175
2014-2-15,74,54,34,21,14,4,47,23,7,30.06,30.00,29.95,10,10,10,23,10,30,0.00,0,,220
2014-2-16,68,54,40,26,20,14,53,28,15,30.07,29.98,29.92,10,10,10,23,8,29,0.00,0,,215
2014-2-17,69,50,31,22,19,12,59,33,11,30.15,30.03,29.94,10,10,10,21,8,25,0.00,0,,196
2014-2-18,69,52,35,27,21,16,59,33,15,30.03,29.95,29.89,10,10,10,12,4,14,0.00,0,,203
2014-2-19,67,51,35,23,14,-1,52,26,11,29.90,29.82,29.73,10,10,10,35,12,42,0.00,0,,233
2014-2-20,58,45,32,9,3,-3,36,21,9,30.12,30.04,29.89,10,10,10,14,6,17,0.00,0,,316
2014-2-21,65,47,28,11,5,-1,35,22,10,30.09,29.98,29.90,10,10,10,16,4,20,0.00,0,,219
2014-2-22,65,48,30,19,11,7,36,25,13,29.97,29.90,29.84,10,10,10,17,6,23,0.00,0,,207
2014-2-23,66,49,32,18,14,12,47,28,12,30.03,29.97,29.92,10,10,10,15,7,20,0.00,0,,193
2014-2-24,68,49,30,22,17,14,53,31,14,30.06,29.99,29.91,10,10,10,18,6,26,0.00,0,,204
2014-2-25,66,51,35,26,21,19,52,35,18,30.02,29.96,29.89,10,10,10,17,6,22,0.00,0,,213
2014-2-26,66,50,34,32,26,21,59,41,19,30.01,29.94,29.88,10,10,10,17,5,22,0.00,1,,216
2014-2-27,61,50,39,35,32,30,70,51,32,29.89,29.83,29.77,10,10,10,32,10,42,0.00,2,,201
2014-2-28,61,51,40,45,37,31,73,59,36,29.85,29.77,29.65,10,10,4,25,11,35,0.12,5,Rain,178